Find the Weather for any City, State  
or Zipcode, or Country:

West Linn, OR 97068 Weather
Local Radar
Local Radar  
Graphs, Details
Graphs and Gauges
Detailed Weather
Detailed Reports
Maps
Temperature
Heat Index
Windchill
Humidity
Radar
Dew Point
Wind
Visibility
Visible Satellite
Satellite
Fronts
Snow Depth
Jet Stream
Flight Rules
Forecast Maps
Temperature Forecast
Maximum Temperature Forecast
Minimum Temperature Forecast
Dewpoint Forecast
Prevalent Weather
12Hr Probability of Precip.
Sky Cover
Health Maps
UV Forecast
Air Quality
Peak Air Quality Index
Weather Station
Oregon Scientific WMR-968
Current Conditions [Select Refresh to Update]
Updated: 5:30pm on 4/19/14
(location)
Currently:
54.0°
Clear
Mostly Cloudy
High: 54.1° 
(5:14pm) 
Low: 45.1° 
(5:18am)
Wind: 4 mph from the SW
Gust: 4 mph
Today's High Wind: 15 mph (11:34am)
Humidity: 70%
Pressure: 30.08 in  (Rising) 
Pressure Rate: 0.023 in/hr
Dew Point: 44.4°
Wind Chill: 53.4°
Heat Index (feels like): 56.9°
Comfort Level: Cool
Temperature Rate:  0.50°/hr
 
5 Day Forecast
 
Sat Sun Mon Tue Wed
Clear Clear Clear Clear Clear
Rain Partly Cloudy Mostly Cloudy Chance Rain Chance Rain
59° 70° 63° 55° 57°
41° 46° 45° 41° 45°
Records and Normals
 
Temperature Forecast Normal Record
High 59° 62° 80°
(1962)
Low 41° 41° 31°
(1982)
 
Weather Advisories
No Advisories
Full Advisory Text...
Weather Map
Almanac
 
Sunrise:  
6:16am
Moonrise: 
---
Moon Phase:
81%
Sunset: 
8:00pm
Moonset:  
9:36am
 Star Chart...
Rainfall Totals
Hourly Rain 0.00 in
Daily Rain: 0.04 in
Monthly Rain: 7.99 in
Yearly Rain: 28.50 in
Normal Rain, month to date: 1.36 in
Normal Rain, year to date: 12.98 in
Local Weather Exchange® Network
Station ID City 
(Click for Map Location)
Neighborhood 
(Click for History)
Last Update (Date & Time) Temperature
 (°)
Dew
Point (°)
Humidity 
(%)
Wind 
(mph)
from the Wind Gust 
(mph) 
Pressure (in) Hourly
Rain (in)
KORWESTL3 West Linn Sunburst II 04/19 17:29:10 54.0 44.0 70 4 SW 6 30.08 0.00
KORWESTL7 West Linn Hidden Springs 04/19 17:29:42 55.1 46.0 70 2 South 25 30.07 0.00
KORWESTL11 West Linn Ridgebrook Park 04/19 17:25:03 55.1 46.0 72 0 East 13 30.09 0.00
KORWESTL1 West Linn Beaver Nation on Skyline Ridge 04/19 17:29:48 57.4 45.0 63 3 WSW 16 29.72 0.00
KORWESTL5 West Linn Cedaroak Boat Ramp 04/19 17:29:06 59.0 31.0 35 0 North 0 30.24 0.00
MORCO3 West Linn HADS WILLAMETTE RIVER BELOW OREGON CI OR US USGS 04/19 16:15:00 55.0 44.0 66 17 South 26 29.99 0.02
KORLAKEO12 Lake Oswego Marylhurst University 04/19 17:29:57 57.9 54.0 87 3 WNW 12 30.08 0.00
KORGLADS5 GLADSTONE GLADSTONE (USA) 04/19 17:29:59 59.2 46.0 61 2 SSW 6 29.84 0.00
KOROREGO14 Oregon City 221 Molalla Avenue 04/19 17:30:04 55.3 44.0 66 11 WSW 20 29.76 0.00
KOROREGO10 Oregon City Tower Vista 04/19 17:30:03 57.6 39.0 49 2 South 2 30.09 0.00
KORMILWA11 Milwaukie Oak Grove (GO BLAZERS) 04/19 17:30:03 56.8 45.0 64 4 NE 6 30.07 0.00
KORGLADS6 Gladstone Gladstone - Gallweather.com 04/19 17:20:42 59.5 46.0 60 5 SSE 7 30.07 0.00
KORPORTL111 Portland Oakgrove PO 1E (Milwaukie) 04/19 17:30:01 58.4 47.0 66 12 WSW 12 30.08 0.00
KORGLADS4 Gladstone Gladstone - Go Beavers! 04/19 17:25:10 59.4 45.0 59 5 SW 8 29.92 0.00
KORLAKEO14 Lake Oswego Rivergrove 04/19 17:25:16 55.9 48.0 76 3 SSW 5 30.02 0.00
KOROREGO6 Oregon City Gaffney Lane Neighborhood 04/19 17:30:00 59.9 53.0 79 3 NW 7 29.98 0.00
KOROREGO22 Oregon City 13945 S Beavercreek Rd 04/19 17:30:02 57.9 45.0 63 3 NW 7 29.83 0.00
KORMILWA9 Milwaukie Milwaukie @ 205 Clackamas 04/19 17:25:38 60.1 28.0 30 8 SSE 13 29.84 0.00
KORCLACK8 Clackamas Watkins Park 04/19 17:30:02 59.2 43.0 54 7 South 17 30.07 0.00
KORCLACK6 Clackamas CHPCS Falcons 04/19 17:20:34 60.3 47.0 61 3 West 0 30.05 0.00
KORMILWA3 Milwaukie meso_neigh21 04/19 17:29:44 59.2 37.0 45 0 North 0 30.10 0.00
KORTUALA9 Tualatin BartNW 04/19 17:25:08 55.9 49.0 78 4 WSW 5 30.09 0.00
KORTUALA2 Tualatin 3DAdams Weather 04/19 17:30:02 57.1 46.0 66 6 WSW 13 30.10 0.00
KORTUALA3 Tualatin Tualatin 04/19 17:23:56 55.8 44.0 64 0 SSW 0 30.13 0.00
KORMILWA5 Milwaukie meso_neigh25 04/19 17:30:04 57.0 45.0 64 1 WSW 12 30.06 0.00
KORMILWA6 Milwaukie Logus-Stanley 04/19 17:25:18 59.7 48.0 64 2 NE 11 29.85 0.00
KORPORTL104 Portland West Portland Park 04/19 17:28:26 54.2 42.0 62 3 WSW 6 30.07 0.00
KOROREGO23 Oregon City Bradley Rd 04/19 17:25:15 55.8 46.0 70 0 South 9 30.08 0.00
KORCANBY8 Canby Quarter Moon Ranch Weather 04/19 17:29:46 57.0 48.0 72 8 SW 12 29.74 0.00
KORMILWA10 Milwaukie Milwaukie 04/19 17:30:03 58.4 48.0 68 0 SSW 6 30.13 0.00
KORPORTL227 Portland Ardenwald 04/19 17:27:43 56.9 46.0 66 0 West 8 30.08 0.00
KORPORTL172 Portland Portland Rowing Club 04/19 17:30:01 57.4 45.0 64 2 WSW 10 30.11 0.00
KORPORTL200 Portland South Burlingame 04/19 17:30:03 56.2 46.0 68 0 North 0 29.74 0.00
KORTUALA7 Tualatin Lake Forest 04/19 17:29:05 59.5 36.0 41 3 ESE 3 29.89 0.00
KORCANBY3 Canby West of Fair Grounds 04/19 17:29:56 58.0 45.0 62 3 South 4 30.12 0.00
KORWILSO8 Wilsonville Charbonneau Lakeside 04/19 17:29:55 59.0 46.0 61 10 SW 23 29.63 0.00
KORWILSO7 Wilsonville The Village at Main Street 04/19 17:30:02 59.4 36.0 42 0 SE 3 29.80 0.00
KORPORTL216 Portland Smith School 04/19 17:29:52 58.6 46.0 63 1 SSW 4 30.13 0.00
KUAO Aurora Official Station 04/19 16:53:00 56.0 44.0 64 13 WSW --- 30.10 ---
KPDX Portland Official Station 04/19 16:53:00 59.0 44.0 58 16 SW --- 30.09 ---
Full Advisory Text
No Warnings

© Ambient Weather and Weather Underground
 Never base important decisions on this or any weather information obtained from the Internet
Updated Automatically by Ambient Weather's Virtual Weather Station  V13.01